FW1042 Weather Reports


Display with metric or nautical units.
time (UTC)temp
F
wind
direction
speed
MPH
gust
MPH
rain 1hr
in
rain 24hr
in
rain mn
in
humidity
%
barometer
mb
20260905165041 93 149 2.0 8.0 0.00 0.00 0.00 56 1014.9
20260905164538 93 169 2.0 7.0 0.00 0.00 0.00 56 1014.9
20260905164038 92 303 1.0 5.0 0.00 0.00 0.00 57 1014.8
20260905163537 92 355 1.0 4.0 0.00 0.00 0.00 56 1014.9
20260905163036 92 257 2.0 5.0 0.00 0.00 0.00 57 1014.8
20260905162536 92 34 1.0 5.0 0.00 0.00 0.00 56 1014.9
20260905162034 92 122 1.0 6.0 0.00 0.00 0.00 57 1014.9
20260905161530 92 211 1.0 6.0 0.00 0.00 0.00 58 1014.9
20260905161030 92 348 1.0 6.0 0.00 0.00 0.00 58 1014.7
20260905160530 91 173 2.0 6.0 0.00 0.00 0.00 59 1014.9
20260905160326 91 288 2.0 5.0 0.00 0.00 0.00 59 1014.9
20260905155530 91 233 2.0 5.0 0.00 0.00 0.00 59 1014.9
20260905155030 91 286 2.0 6.0 0.00 0.00 0.00 60 1014.9
20260905154828 91 280 1.0 6.0 0.00 0.00 0.00 60 1014.8
20260905154328 91 242 1.0 4.0 0.00 0.00 0.00 61 1014.8
20260905153529 91 172 2.0 5.0 0.00 0.00 0.00 62 1014.9
20260905153024 90 143 2.0 5.0 0.00 0.00 0.00 63 1014.9
20260905152619 89 178 1.0 5.0 0.00 0.00 0.00 64 1014.8
20260905152556 90 25 2.0 5.0 0.00 0.00 0.00 63 1014.9
20260905151524 89 178 1.0 5.0 0.00 0.00 0.00 64 1014.9
20260905151024 89 183 2.0 5.0 0.00 0.00 0.00 64 1014.9
20260905150523 89 304 2.0 4.0 0.00 0.00 0.00 64 1015.0
20260905150027 88 284 1.0 6.0 0.00 0.00 0.00 64 1014.9
20260905145523 88 336 1.0 6.0 0.00 0.00 0.00 66 1014.8
20260905145022 88 270 1.0 6.0 0.00 0.00 0.00 66 1014.9
20260905144520 88 309 2.0 6.0 0.00 0.00 0.00 66 1014.9
20260905144020 88 255 2.0 6.0 0.00 0.00 0.00 67 1014.7
20260905143817 88 194 2.0 6.0 0.00 0.00 0.00 68 1014.6
20260905143021 87 318 2.0 5.0 0.00 0.00 0.00 68 1014.7
20260905142521 87 181 2.0 6.0 0.00 0.00 0.00 70 1014.8
20260905142123 86 273 1.0 4.0 0.00 0.00 0.00 71 1014.7
20260905142100 87 198 1.0 6.0 0.00 0.00 0.00 70 1014.6
20260905141019 86 169 2.0 7.0 0.00 0.00 0.00 71 1014.7
20260905140520 85 184 2.0 7.0 0.00 0.00 0.00 72 1014.7
20260905140020 85 197 2.0 5.0 0.00 0.00 0.00 73 1014.6
20260905135520 84 171 1.0 5.0 0.00 0.00 0.00 74 1014.6
20260905135020 84 178 1.0 6.0 0.00 0.00 0.00 76 1014.5
20260905134519 83 215 1.0 6.0 0.00 0.00 0.00 78 1014.7
20260905134117 82 187 1.0 4.0 0.00 0.00 0.00 80 1014.6
20260905134050 82 200 1.0 5.0 0.00 0.00 0.00 79 1014.6
20260905133018 81 171 1.0 4.0 0.00 0.00 0.00 81 1014.4
20260905132518 81 131 1.0 6.0 0.00 0.00 0.00 81 1014.4
20260905132018 80 162 1.0 6.0 0.00 0.00 0.00 82 1014.5
20260905131518 80 182 1.0 3.0 0.00 0.00 0.00 83 1014.4
20260905131313 80 167 1.0 3.0 0.00 0.00 0.00 83 1014.4
20260905130518 79 190 1.0 3.0 0.00 0.00 0.00 83 1014.3
20260905130017 79 209 0.0 2.0 0.00 0.00 0.00 84 1014.3
20260905125516 79 142 0.0 2.0 0.00 0.00 0.00 83 1014.3
20260905125013 79 179 0.0 2.0 0.00 0.00 0.00 83 1014.2
20260905124514 79 189 0.0 2.0 0.00 0.00 0.00 83 1014.1
20260905124307 79 198 0.0 1.0 0.00 0.00 0.00 83 1014.0
20260905123758 79 198 0.0 1.0 0.00 0.00 0.00 82 1014.0
20260905123014 79 198 0.0 1.0 0.00 0.00 0.00 82 1014.0
20260905122514 79 198 0.0 0.0 0.00 0.00 0.00 82 1013.9
20260905122014 79 198 0.0 0.0 0.00 0.00 0.00 82 1013.9
20260905121514 79 198 0.0 2.0 0.00 0.00 0.00 82 1013.8
20260905121316 79 198 0.0 3.0 0.00 0.00 0.00 82 1013.7
20260905120519 79 188 0.0 3.0 0.00 0.00 0.00 82 1013.7
20260905120014 79 166 0.0 3.0 0.00 0.00 0.00 82 1013.6
20260905115514 79 190 0.0 2.0 0.00 0.00 0.00 82 1013.6
20260905115012 79 176 0.0 2.0 0.00 0.00 0.00 81 1013.5
20260905114806 79 184 1.0 2.0 0.00 0.00 0.00 82 1013.5
20260905114309 79 159 1.0 2.0 0.00 0.00 0.00 82 1013.6
20260905113512 79 184 0.0 2.0 0.00 0.00 0.00 82 1013.6
20260905113013 79 186 0.0 2.0 0.00 0.00 0.00 82 1013.5
20260905112511 79 182 1.0 3.0 0.00 0.00 0.00 82 1013.5
20260905112011 79 143 1.0 4.0 0.00 0.00 0.00 82 1013.5
20260905111510 79 146 0.0 4.0 0.00 0.00 0.00 83 1013.4
20260905111010 79 165 0.0 3.0 0.00 0.00 0.00 83 1013.4
20260905110510 79 178 0.0 2.0 0.00 0.00 0.00 83 1013.4
20260905110020 79 196 0.0 1.0 0.00 0.00 0.00 83 1013.5
20260905105513 79 196 0.0 1.0 0.00 0.00 0.00 83 1013.7
20260905105009 79 197 0.0 1.0 0.00 0.00 0.00 83 1013.6
20260905104510 80 193 0.0 1.0 0.00 0.00 0.00 82 1013.7
20260905104308 79 193 0.0 2.0 0.00 0.00 0.00 81 1013.8
20260905103809 79 180 0.0 2.0 0.00 0.00 0.00 80 1013.8
20260905103306 80 169 0.0 0.0 0.00 0.00 0.00 80 1013.9
20260905102510 80 169 0.0 0.0 0.00 0.00 0.00 80 1013.8
20260905102009 80 169 0.0 0.0 0.00 0.00 0.00 79 1013.8
20260905101506 80 169 0.0 0.0 0.00 0.00 0.00 79 1013.7
20260905101005 81 169 0.0 0.0 0.00 0.00 0.00 80 1013.7
20260905100507 81 169 0.0 0.0 0.00 0.00 0.00 80 1013.7
20260905100301 81 169 0.0 0.0 0.00 0.00 0.00 78 1013.7
20260905095505 81 169 0.0 1.0 0.00 0.00 0.00 76 1013.6
20260905095005 81 169 0.0 2.0 0.00 0.00 0.00 75 1013.6
20260905094505 81 168 0.0 2.0 0.00 0.00 0.00 75 1013.6
20260905094007 81 166 0.0 2.0 0.00 0.00 0.00 74 1013.6
20260905093605 82 173 0.0 2.0 0.00 0.00 0.00 74 1013.5
20260905093538 81 205 0.0 2.0 0.00 0.00 0.00 74 1013.6
20260905092504 82 173 1.0 2.0 0.00 0.00 0.00 74 1013.3
20260905092005 82 191 1.0 4.0 0.00 0.00 0.00 74 1013.3
20260905091503 82 192 1.0 4.0 0.00 0.00 0.00 74 1013.2
20260905091005 82 194 1.0 2.0 0.00 0.00 0.00 73 1013.2
20260905090504 82 189 0.0 3.0 0.00 0.00 0.00 73 1013.2
20260905090306 82 182 0.0 3.0 0.00 0.00 0.00 72 1013.0
20260905085505 82 188 0.0 1.0 0.00 0.00 0.00 72 1013.1
20260905085005 82 187 0.0 1.0 0.00 0.00 0.00 71 1013.1
20260905084502 83 189 0.0 2.0 0.00 0.00 0.00 71 1013.0
20260905084001 83 196 0.0 2.0 0.00 0.00 0.00 71 1013.1
20260905083501 83 179 0.0 1.0 0.00 0.00 0.00 70 1013.1
20260905083001 83 197 0.0 2.0 0.00 0.00 0.00 70 1013.2
20260905082503 83 197 1.0 3.0 0.00 0.00 0.00 70 1013.0
20260905082250 83 188 1.0 3.0 0.00 0.00 0.00 69 1013.1
20260905081501 83 192 1.0 5.0 0.00 0.00 0.00 69 1013.1
20260905081001 83 204 1.0 5.0 0.00 0.00 0.00 69 1013.0
20260905080757 84 196 1.0 5.0 0.00 0.00 0.00 69 1013.0
20260905080008 84 204 1.0 5.0 0.00 0.00 0.00 69 1013.1
20260905075501 84 197 1.0 4.0 0.00 0.00 0.00 68 1013.0
20260905074959 84 165 2.0 4.0 0.00 0.00 0.00 68 1013.0
20260905074500 84 199 2.0 5.0 0.00 0.00 0.00 68 1012.9
20260905073958 84 209 2.0 5.0 0.00 0.00 0.00 68 1013.1
20260905073456 84 155 2.0 5.0 0.00 0.00 0.00 68 1013.1
20260905072956 84 181 2.0 5.0 0.00 0.00 0.00 67 1013.2
20260905072456 85 148 2.0 5.0 0.00 0.00 0.00 67 1013.2
20260905071956 85 156 1.0 5.0 0.00 0.00 0.00 67 1013.3
20260905071453 85 194 2.0 5.0 0.00 0.00 0.00 67 1013.2
20260905070955 85 145 2.0 1.0 0.00 0.00 0.00 67 1013.4
20260905070251 85 161 1.0 4.0 0.00 0.00 0.00 67 1013.3
20260905065753 85 157 1.0 4.0 0.00 0.00 0.00 67 1013.2
20260905065249 85 196 2.0 6.0 0.00 0.00 0.00 66 1013.3
20260905064749 85 193 2.0 6.0 0.00 0.00 0.00 66 1013.3
20260905064249 85 149 1.0 4.0 0.00 0.00 0.00 66 1013.4
20260905063749 86 173 1.0 6.0 0.00 0.00 0.00 66 1013.4
20260905063250 86 168 3.0 7.0 0.00 0.00 0.00 66 1013.3
20260905062749 86 189 3.0 7.0 0.00 0.00 0.00 66 1013.4
20260905062247 86 167 2.0 9.0 0.00 0.00 0.00 66 1013.3
20260905061746 86 159 2.0 9.0 0.00 0.00 0.00 66 1013.3
20260905061246 86 184 2.0 6.0 0.00 0.00 0.00 65 1013.3
20260905060743 86 193 2.0 5.0 0.00 0.00 0.00 65 1013.4
20260905060243 86 130 2.0 8.0 0.00 0.00 0.00 65 1013.3
20260905055744 86 175 3.0 8.0 0.00 0.00 0.00 65 1013.3
20260905055333 87 217 2.0 5.0 0.00 0.00 0.00 64 1013.2
20260905055311 86 148 2.0 7.0 0.00 0.00 0.00 65 1013.3
20260905054239 87 163 2.0 7.0 0.00 0.00 0.00 64 1013.4
20260905053739 87 176 2.0 7.0 0.00 0.00 0.00 64 1013.2
20260905053240 87 146 2.0 6.0 0.00 0.00 0.00 63 1013.2
20260905052739 87 198 2.0 6.0 0.00 0.00 0.00 63 1013.2
20260905052642 87 161 3.0 8.0 0.00 0.00 0.00 63 1013.0
20260905051737 87 156 3.0 8.0 0.00 0.00 0.00 62 1013.1
20260905051238 87 155 2.0 7.0 0.00 0.00 0.00 62 1013.0
20260905050739 87 192 2.0 7.0 0.00 0.00 0.00 61 1013.1
20260905050525 88 155 2.0 5.0 0.00 0.00 0.00 61 1013.0
20260905045736 88 146 3.0 5.0 0.00 0.00 0.00 61 1013.0
20260905045236 88 155 2.0 8.0 0.00 0.00 0.00 60 1013.1
20260905044736 88 195 3.0 8.0 0.00 0.00 0.00 60 1013.1
20260905044229 88 215 2.0 6.0 0.00 0.00 0.00 60 1013.2
20260905043722 88 175 2.0 6.0 0.00 0.00 0.00 59 1013.2
20260905043223 88 161 2.0 6.0 0.00 0.00 0.00 59 1013.1
20260905042726 88 177 2.0 6.0 0.00 0.00 0.00 59 1013.2
20260905042220 88 151 2.0 5.0 0.00 0.00 0.00 58 1013.0
20260905042015 88 154 1.0 4.0 0.00 0.00 0.00 58 1013.0
20260905041513 89 168 1.0 6.0 0.00 0.00 0.00 57 1013.1
20260905040719 89 159 2.0 6.0 0.00 0.00 0.00 57 1013.1
20260905040219 89 132 2.0 5.0 0.00 0.00 0.00 56 1013.1
20260905040017 89 157 2.0 6.0 0.00 0.00 0.00 56 1013.0
20260905035220 89 157 2.0 6.0 0.00 0.00 0.00 56 1013.1
20260905034723 89 137 2.0 5.0 0.00 0.00 0.00 56 1013.0
20260905034219 89 199 2.0 5.0 0.00 0.00 0.00 55 1013.0
20260905033719 89 157 2.0 6.0 0.00 0.00 0.00 55 1013.1
20260905033217 90 153 2.0 6.0 0.00 0.00 0.00 55 1013.0
20260905032716 90 235 2.0 5.0 0.00 0.00 0.00 55 1013.0
20260905032216 90 169 2.0 5.0 0.00 0.00 0.00 55 1012.9
20260905032010 90 157 2.0 4.0 0.00 0.00 0.00 55 1013.0
20260905031213 90 148 2.0 6.0 0.00 0.00 0.00 55 1013.0
20260905030800 90 140 1.0 6.0 0.00 0.00 0.00 54 1012.9
20260905030744 90 163 2.0 6.0 0.00 0.00 0.00 55 1012.9
20260905025708 90 205 1.0 6.0 0.00 0.00 0.00 54 1012.9
20260905025209 90 150 1.0 6.0 0.00 0.00 0.00 54 1012.8
20260905024707 90 171 2.0 7.0 0.00 0.00 0.00 53 1012.8
20260905024208 91 142 2.0 7.0 0.00 0.00 0.00 53 1012.8
20260905023706 91 184 1.0 5.0 0.00 0.00 0.00 53 1012.7
20260905023206 91 132 2.0 7.0 0.00 0.00 0.00 52 1012.6
20260905022700 91 181 2.0 8.0 0.00 0.00 0.00 52 1012.5
20260905022158 91 152 2.0 8.0 0.00 0.00 0.00 52 1012.5
20260905021655 91 150 1.0 6.0 0.00 0.00 0.00 51 1012.4
20260905021253 91 169 2.0 5.0 0.00 0.00 0.00 51 1012.2
20260905021231 91 183 2.0 5.0 0.00 0.00 0.00 51 1012.3
20260905020150 92 110 2.0 5.0 0.00 0.00 0.00 51 1012.2
20260905015650 92 136 2.0 6.0 0.00 0.00 0.00 50 1012.1
20260905015149 92 136 2.0 9.0 0.00 0.00 0.00 50 1012.0
20260905014646 92 165 2.0 9.0 0.00 0.00 0.00 50 1011.9
20260905014146 92 121 2.0 7.0 0.00 0.00 0.00 50 1011.8
20260905013942 92 84 2.0 7.0 0.00 0.00 0.00 50 1011.6
20260905013237 92 206 3.0 8.0 0.00 0.00 0.00 50 1011.8
20260905013214 92 146 2.0 5.0 0.00 0.00 0.00 50 1011.8
20260905012143 92 172 2.0 8.0 0.00 0.00 0.00 50 1011.7
20260905011941 92 120 2.0 7.0 0.00 0.00 0.00 50 1011.5
20260905011142 93 176 3.0 9.0 0.00 0.00 0.00 50 1011.6
20260905010637 93 156 3.0 9.0 0.00 0.00 0.00 49 1011.5
20260905010136 93 140 3.0 6.0 0.00 0.00 0.00 49 1011.5
20260905005632 93 138 3.0 8.0 0.00 0.00 0.00 49 1011.4
20260905005131 93 173 3.0 9.0 0.00 0.00 0.00 49 1011.4
20260905004630 93 148 3.0 9.0 0.00 0.00 0.00 49 1011.2
20260905004130 94 153 3.0 9.0 0.00 0.00 0.00 49 1011.2
20260905003631 94 101 3.0 9.0 0.00 0.00 0.00 49 1011.2
20260905003130 94 182 2.0 8.0 0.00 0.00 0.00 48 1011.3
20260905002631 94 102 2.0 8.0 0.00 0.00 0.00 48 1011.0
20260905002418 94 250 3.0 8.0 0.00 0.00 0.00 48 1011.0
20260905001924 94 160 3.0 8.0 0.00 0.00 0.00 48 1011.0
20260905001130 95 139 3.0 9.0 0.00 0.00 0.00 48 1011.0
20260905000631 95 113 3.0 9.0 0.00 0.00 0.00 47 1011.0
20260905000130 96 210 3.0 9.0 0.00 0.00 0.00 47 1011.0
20260904235626 96 80 3.0 9.0 0.00 0.00 0.00 47 1010.9
20260904235126 96 161 4.0 9.0 0.00 0.00 0.00 47 1010.9
20260904234627 96 72 4.0 9.0 0.00 0.00 0.00 48 1010.8
20260904234126 96 177 3.0 9.0 0.00 0.00 0.00 48 1010.9
20260904233626 96 114 3.0 9.0 0.00 0.00 0.00 48 1011.0
20260904233126 96 140 3.0 12.0 0.00 0.00 0.00 47 1010.9
20260904232624 96 146 3.0 12.0 0.00 0.00 0.00 47 1010.9
20260904232125 96 185 3.0 8.0 0.00 0.00 0.00 46 1010.9
20260904231624 97 208 3.0 8.0 0.00 0.00 0.00 46 1010.9
20260904231124 98 88 3.0 10.0 0.00 0.00 0.00 44 1010.9
20260904230626 99 128 2.0 10.0 0.00 0.00 0.00 43 1010.9
20260904230422 99 141 2.0 8.0 0.00 0.00 0.00 43 1010.9
20260904225625 98 130 3.0 16.0 0.00 0.00 0.00 43 1010.8
20260904225124 98 171 3.0 16.0 0.00 0.00 0.00 43 1010.9
20260904224618 99 201 2.0 7.0 0.00 0.00 0.00 42 1010.8
20260904224410 99 174 3.0 7.0 0.00 0.00 0.00 43 1010.9
20260904223612 99 203 3.0 7.0 0.00 0.00 0.00 43 1010.8
20260904223113 100 200 3.0 9.0 0.00 0.00 0.00 42 1010.9
20260904222859 100 187 4.0 9.0 0.00 0.00 0.00 42 1011.0
20260904222112 100 144 3.0 8.0 0.00 0.00 0.00 42 1010.9
20260904221612 100 185 2.0 8.0 0.00 0.00 0.00 42 1010.9
20260904221112 100 186 3.0 8.0 0.00 0.00 0.00 42 1010.9
20260904220612 100 183 3.0 9.0 0.00 0.00 0.00 42 1010.9
20260904220114 99 183 3.0 9.0 0.00 0.00 0.00 44 1011.0
20260904215616 99 180 3.0 9.0 0.00 0.00 0.00 44 1011.2
20260904215112 98 261 3.0 9.0 0.00 0.00 0.00 44 1011.2
20260904214707 98 148 3.0 10.0 0.00 0.00 0.00 45 1011.2
20260904214644 98 92 3.0 10.0 0.00 0.00 0.00 43 1011.3
20260904213606 97 144 3.0 7.0 0.00 0.00 0.00 45 1011.3
20260904213059 97 170 3.0 7.0 0.00 0.00 0.00 44 1011.3
20260904212552 97 155 3.0 7.0 0.00 0.00 0.00 44 1011.4
20260904212053 98 232 3.0 8.0 0.00 0.00 0.00 43 1011.4
20260904211552 98 162 3.0 8.0 0.00 0.00 0.00 42 1011.5
20260904211052 100 82 3.0 7.0 0.00 0.00 0.00 42 1011.6
20260904210555 101 156 3.0 8.0 0.00 0.00 0.00 41 1011.6
20260904210052 101 100 4.0 8.0 0.00 0.00 0.00 41 1011.6
20260904205554 101 137 3.0 9.0 0.00 0.00 0.00 41 1011.7
20260904205052 101 144 3.0 9.0 0.00 0.00 0.00 40 1011.8
20260904204552 100 128 4.0 11.0 0.00 0.00 0.00 43 1011.8
20260904204052 100 154 4.0 11.0 0.00 0.00 0.00 41 1011.9
20260904203552 100 165 4.0 11.0 0.00 0.00 0.00 42 1012.1
20260904203055 100 92 3.0 9.0 0.00 0.00 0.00 42 1012.0
20260904202552 100 169 3.0 10.0 0.00 0.00 0.00 44 1011.9
20260904202052 98 120 4.0 11.0 0.00 0.00 0.00 43 1012.1
20260904201552 99 140 4.0 11.0 0.00 0.00 0.00 44 1012.2
20260904201052 99 83 4.0 11.0 0.00 0.00 0.00 44 1012.3
20260904200552 99 115 3.0 11.0 0.00 0.00 0.00 44 1012.4
20260904200052 99 110 3.0 10.0 0.00 0.00 0.00 46 1012.4
20260904195555 99 235 3.0 9.0 0.00 0.00 0.00 45 1012.6
20260904195052 98 168 3.0 10.0 0.00 0.00 0.00 44 1012.6
20260904194552 99 156 3.0 10.0 0.00 0.00 0.00 46 1012.8
20260904194155 98 263 3.0 9.0 0.00 0.00 0.00 46 1012.8
20260904194132 99 166 3.0 9.0 0.00 0.00 0.00 46 1012.9
20260904193352 98 78 4.0 13.0 0.00 0.00 0.00 47 1012.8
20260904192551 98 158 4.0 13.0 0.00 0.00 0.00 46 1012.9
20260904192052 97 163 3.0 8.0 0.00 0.00 0.00 47 1012.8
20260904191550 98 165 3.0 8.0 0.00 0.00 0.00 47 1013.0
20260904191050 98 297 3.0 7.0 0.00 0.00 0.00 48 1013.2
20260904190553 97 129 4.0 8.0 0.00 0.00 0.00 48 1013.3
20260904190045 96 165 3.0 8.0 0.00 0.00 0.00 49 1013.4
20260904185846 96 167 3.0 9.0 0.00 0.00 0.00 50 1013.4
20260904185044 97 174 4.0 9.0 0.00 0.00 0.00 49 1013.4
20260904184836 97 151 4.0 9.0 0.00 0.00 0.00 49 1013.5
20260904184044 96 160 4.0 9.0 0.00 0.00 0.00 50 1013.6
20260904183544 96 162 4.0 9.0 0.00 0.00 0.00 52 1013.7
20260904183044 95 167 4.0 14.0 0.00 0.00 0.00 51 1013.8
20260904182838 95 227 4.0 14.0 0.00 0.00 0.00 53 1013.8
20260904182044 96 148 4.0 9.0 0.00 0.00 0.00 51 1014.0
20260904181544 96 142 4.0 10.0 0.00 0.00 0.00 51 1013.9
20260904181042 96 142 4.0 11.0 0.00 0.00 0.00 52 1014.2
20260904180541 96 184 4.0 12.0 0.00 0.00 0.00 51 1014.2
20260904180043 96 157 4.0 12.0 0.00 0.00 0.00 49 1014.2
20260904175918 94 202 3.0 8.0 0.00 0.00 0.00 54 1014.3
20260904175912 95 169 3.0 12.0 0.00 0.00 0.00 50 1014.3
20260904174542 94 98 3.0 7.0 0.00 0.00 0.00 54 1014.3
20260904174042 94 162 2.0 7.0 0.00 0.00 0.00 56 1014.3
20260904173839 94 153 3.0 9.0 0.00 0.00 0.00 57 1014.4
20260904173042 94 156 3.0 10.0 0.00 0.00 0.00 56 1014.5
20260904172543 93 174 3.0 10.0 0.00 0.00 0.00 58 1014.5
20260904172043 93 114 3.0 7.0 0.00 0.00 0.00 59 1014.6
20260904171543 93 141 4.0 13.0 0.00 0.00 0.00 58 1014.7
20260904171139 92 184 3.0 7.0 0.00 0.00 0.00 59 1014.8
20260904171120 93 186 4.0 13.0 0.00 0.00 0.00 58 1014.8
20260904170041 92 210 2.0 7.0 0.00 0.00 0.00 60 1014.9
20260904165541 92 231 3.0 10.0 0.00 0.00 0.00 62 1014.9